NOAA 16 DEB, 41224

Orbit data source: Space-Track

NOAA 16 DEB, 41224 is space debris in SSO originally from a launch on Thu, 21 Sep 2000 UTC launched from the Air Force Western Test Range (AFWTR). Debris objects in space refer to the collection of defunct objects orbiting the Earth. Examples of debris include non-operational satellites, rocket bodies, and fragments generated from explosions, collisions, or faulty payload assembly.

Loading next visibility...
Identifier
41224, 2000-055ED
Orbit
SSO
Country
Flag of USUS
Related business
Manufacturer
Unknown
Mission
Spacecraft
Bus & Motor
Unknown
Mass
Unknown
Launch date (UTC)
2000-09-21 (25 years ago)
Launch vehicle
Unknown
Launch site
Air Force Western Test Range (AFWTR)
Object type
Payload
Rocket body
Debris
Shape & HBR
Unknown shape, 0.1 m
Radar Cross Section
Small (<0.1 m²)

Expand to show TLE details & history
Last TLE update: 1 day ago

TLE from 1 day ago
0 NOAA 16 DEB
1 41224U 00055ED  25286.80267334  .00033084  00000-0  79530-2 0  9993
2 41224  98.9152  47.0176 0019087  96.4687 263.8681 14.53111551508069
Epoch: 2025-10-13T19:15Z
TLE epoch observation values (Epoch: 2025-10-13T19:15:50.976Z)
Latitude
-0.00003°
Longitude
95.45498°
Altitude
719.929 km
Speed
7.495 km/s
True Right ascension
03h 08m 04s
True Declination
0° 00' 00"
Sunlit
Object was in full shadow at epoch
Visualization orbit readout
Latitude
Unknown
Longitude
Unknown
Altitude
Unknown
Speed
Unknown
Apparent Right ascension
Unknown
Apparent Declination
Unknown
Sunlit
N/A
Visualization observer readout
Local Sidereal Time
00:34:22
Azimuth
Unknown
Elevation
Unknown
Doppler factor
Unknown
Orbital elements
Apogee altitude
726.163 km
Perigee altitude
699.094 km
Semi-major axis
7,090.766 km
Eccentricity
0.00191
Inclination
98.9152°
RAAN
47.0176°
Arg. of periapsis
96.4687°
True anomaly
263.65069°
Mean anomaly
263.8681°
Eccentric anomaly
263.75939°
Mean motion
3.63499 °/min
Orbital period
99.04 mins
BSTAR
0.007953
Loading maneuver chart data...
Computing Atmospheric mass density...
Loading historical data...
Loading historical data...
Loading historical data...
Loading historical data...
Loading historical data...
Loading historical data...
Loading historical data...

Documentation

Showing up to 5 results
|